TimeEDT,TemperatureF,Dew PointF,Humidity,Sea Level PressureIn,VisibilityMPH,Wind Direction,Wind SpeedMPH,Gust SpeedMPH,PrecipitationIn,Events,Conditions,WindDirDegrees,DateUTC
12:53 AM,79.0,72.0,79,29.96,10.0,South,10.4,-,N/A,,Scattered Clouds,170,2014-04-19 04:53:00
1:49 AM,78.8,73.4,83,29.95,10.0,SSE,10.4,-,N/A,,Mostly Cloudy,160,2014-04-19 05:49:00
1:53 AM,79.0,73.9,84,29.95,10.0,SSE,9.2,-,N/A,,Mostly Cloudy,160,2014-04-19 05:53:00
2:13 AM,79.0,73.9,84,29.95,10.0,South,10.4,16.1,N/A,,Mostly Cloudy,180,2014-04-19 06:13:00
2:21 AM,79.0,73.9,84,29.95,10.0,South,11.5,-,N/A,,Scattered Clouds,170,2014-04-19 06:21:00
2:53 AM,79.0,72.0,79,29.94,10.0,South,9.2,-,N/A,,Partly Cloudy,190,2014-04-19 06:53:00
3:53 AM,79.0,73.0,82,29.91,10.0,South,9.2,-,N/A,,Clear,170,2014-04-19 07:53:00
5:41 AM,78.1,73.0,84,29.91,10.0,South,5.8,-,0.01,Rain-Thunderstorm,Light Rain,180,2014-04-19 09:41:00
5:53 AM,78.1,73.0,84,29.93,10.0,South,5.8,-,0.01,Rain-Thunderstorm,Light Thunderstorms and Rain,190,2014-04-19 09:53:00
6:07 AM,78.1,73.0,84,29.92,10.0,South,4.6,-,0.00,Rain,Light Rain,180,2014-04-19 10:07:00
6:46 AM,75.9,69.1,79,29.94,7.0,South,8.1,-,0.01,Rain-Thunderstorm,Light Rain,180,2014-04-19 10:46:00
6:53 AM,75.9,69.1,79,29.94,10.0,South,6.9,-,0.01,Rain-Thunderstorm,Light Rain,180,2014-04-19 10:53:00
7:27 AM,73.0,69.1,87,29.96,5.0,WSW,13.8,-,0.06,Rain,Light Rain,250,2014-04-19 11:27:00
7:53 AM,71.1,68.0,90,29.97,6.0,WSW,11.5,-,0.10,Rain,Light Rain,250,2014-04-19 11:53:00
8:33 AM,71.1,69.1,93,29.98,1.8,WSW,10.4,-,0.07,Rain,Rain,240,2014-04-19 12:33:00
8:42 AM,72.0,69.1,91,29.98,3.0,WSW,9.2,-,0.08,Rain,Light Rain,250,2014-04-19 12:42:00
8:53 AM,72.0,69.1,91,29.97,10.0,SW,3.5,-,0.08,,Overcast,230,2014-04-19 12:53:00
9:53 AM,73.9,71.1,91,29.97,10.0,West,8.1,-,0.01,,Mostly Cloudy,260,2014-04-19 13:53:00
10:53 AM,79.0,71.1,77,29.96,10.0,West,9.2,-,N/A,,Scattered Clouds,260,2014-04-19 14:53:00
11:53 AM,82.0,70.0,67,29.96,10.0,West,10.4,-,N/A,,Scattered Clouds,270,2014-04-19 15:53:00
12:53 PM,84.9,69.1,59,29.94,10.0,WSW,13.8,-,N/A,,Scattered Clouds,240,2014-04-19 16:53:00
1:53 PM,86.0,68.0,55,29.91,10.0,SW,9.2,-,N/A,,Scattered Clouds,230,2014-04-19 17:53:00
2:53 PM,82.9,72.0,69,29.90,10.0,SE,10.4,-,N/A,,Scattered Clouds,140,2014-04-19 18:53:00
3:53 PM,89.1,66.0,46,29.88,10.0,SW,13.8,17.3,N/A,,Scattered Clouds,230,2014-04-19 19:53:00
4:53 PM,88.0,64.9,46,29.88,10.0,WSW,17.3,-,N/A,,Clear,250,2014-04-19 20:53:00
5:53 PM,84.0,66.0,55,29.89,10.0,West,18.4,-,N/A,,Scattered Clouds,270,2014-04-19 21:53:00
6:53 PM,82.0,64.9,56,29.90,10.0,West,15.0,24.2,N/A,,Partly Cloudy,260,2014-04-19 22:53:00
7:53 PM,77.0,62.1,60,29.92,10.0,WNW,16.1,-,N/A,,Clear,290,2014-04-19 23:53:00
8:53 PM,75.0,60.1,60,29.95,10.0,West,15.0,-,N/A,,Clear,280,2014-04-20 00:53:00
9:53 PM,73.0,60.1,64,29.98,10.0,West,12.7,-,N/A,,Clear,270,2014-04-20 01:53:00
10:53 PM,71.1,60.1,68,30.00,10.0,West,11.5,-,N/A,,Clear,260,2014-04-20 02:53:00
11:53 PM,70.0,60.1,71,29.99,10.0,West,13.8,-,N/A,,Scattered Clouds,270,2014-04-20 03:53:00